Location: Haut Kerinec
(48.0623°N, 4.4081°W)
Time: 22:33:46
(UTC+00:00)

STARLINK-1254 - Pass Details

Date: 10 October 2020
Orbit: 548 x 551 km, 53.0° (Epoch: 26 October)

Event Time Altitude Azimuth Distance (km) Brightness Sun altitude
Rises 20:41:54 0° 261° (W) 2,712 7.9 -30.8°
Reaches altitude 10° 20:44:10 10° 266° (W) 1,820 6.9 -31.1°
Enters shadow 20:45:50 23° 275° (W) 1,208 5.9 -31.4°
